#datetime,building,power
2022-12-31T00:00:00,prt,24.08
2022-12-31T00:01:00,prt,23.59
2022-12-31T00:02:00,prt,23.55
2022-12-31T00:03:00,prt,23.14
2022-12-31T00:04:00,prt,22.68
2022-12-31T00:05:00,prt,20.21
2022-12-31T00:06:00,prt,19.48
2022-12-31T00:07:00,prt,19.94
2022-12-31T00:08:00,prt,20.59
2022-12-31T00:09:00,prt,21.06
2022-12-31T00:10:00,prt,21.20
2022-12-31T00:11:00,prt,21.20
2022-12-31T00:12:00,prt,20.04
2022-12-31T00:13:00,prt,19.92
2022-12-31T00:14:00,prt,24.22
2022-12-31T00:15:00,prt,24.41
2022-12-31T00:16:00,prt,21.03
2022-12-31T00:17:00,prt,20.41
2022-12-31T00:18:00,prt,20.53
2022-12-31T00:19:00,prt,20.03
2022-12-31T00:20:00,prt,23.64
2022-12-31T00:21:00,prt,24.11
2022-12-31T00:22:00,prt,23.91
2022-12-31T00:23:00,prt,22.77
2022-12-31T00:24:00,prt,23.29
2022-12-31T00:25:00,prt,23.68
2022-12-31T00:26:00,prt,21.31
2022-12-31T00:27:00,prt,21.71
2022-12-31T00:28:00,prt,21.51
2022-12-31T00:29:00,prt,19.77
2022-12-31T00:30:00,prt,20.76
2022-12-31T00:31:00,prt,21.14
2022-12-31T00:32:00,prt,22.51
2022-12-31T00:33:00,prt,23.05
2022-12-31T00:34:00,prt,22.59
2022-12-31T00:35:00,prt,22.05
2022-12-31T00:36:00,prt,26.05
2022-12-31T00:37:00,prt,25.29
2022-12-31T00:38:00,prt,25.51
2022-12-31T00:39:00,prt,21.43
2022-12-31T00:40:00,prt,20.67
2022-12-31T00:41:00,prt,21.33
2022-12-31T00:42:00,prt,21.15
2022-12-31T00:43:00,prt,21.87
2022-12-31T00:44:00,prt,23.46
2022-12-31T00:45:00,prt,22.98
2022-12-31T00:46:00,prt,25.33
2022-12-31T00:47:00,prt,27.18
2022-12-31T00:48:00,prt,27.45
2022-12-31T00:49:00,prt,26.70
2022-12-31T00:50:00,prt,27.04
2022-12-31T00:51:00,prt,24.13
2022-12-31T00:52:00,prt,24.12
2022-12-31T00:53:00,prt,22.21
2022-12-31T00:54:00,prt,21.94
2022-12-31T00:55:00,prt,21.36
2022-12-31T00:56:00,prt,20.11
2022-12-31T00:57:00,prt,19.31
2022-12-31T00:58:00,prt,23.09
2022-12-31T00:59:00,prt,25.70
2022-12-31T01:00:00,prt,25.10
2022-12-31T01:01:00,prt,23.89
2022-12-31T01:02:00,prt,20.06
2022-12-31T01:03:00,prt,19.98
2022-12-31T01:04:00,prt,20.51
2022-12-31T01:05:00,prt,21.14
2022-12-31T01:06:00,prt,21.12
2022-12-31T01:07:00,prt,21.49
2022-12-31T01:08:00,prt,23.25
2022-12-31T01:09:00,prt,21.98
2022-12-31T01:10:00,prt,21.01
2022-12-31T01:11:00,prt,20.76
2022-12-31T01:12:00,prt,23.46
2022-12-31T01:13:00,prt,24.41
2022-12-31T01:14:00,prt,23.97
2022-12-31T01:15:00,prt,24.42
2022-12-31T01:16:00,prt,25.05
2022-12-31T01:17:00,prt,21.41
2022-12-31T01:18:00,prt,22.11
2022-12-31T01:19:00,prt,20.64
2022-12-31T01:20:00,prt,20.82
2022-12-31T01:21:00,prt,24.41
2022-12-31T01:22:00,prt,24.11
2022-12-31T01:23:00,prt,23.61
2022-12-31T01:24:00,prt,20.18
2022-12-31T01:25:00,prt,19.76
2022-12-31T01:26:00,prt,21.56
2022-12-31T01:27:00,prt,21.58
2022-12-31T01:28:00,prt,20.89
2022-12-31T01:29:00,prt,19.66
2022-12-31T01:30:00,prt,19.64
2022-12-31T01:31:00,prt,19.54
2022-12-31T01:32:00,prt,19.85
2022-12-31T01:33:00,prt,20.75
2022-12-31T01:34:00,prt,22.78
2022-12-31T01:35:00,prt,22.77
2022-12-31T01:36:00,prt,26.69
2022-12-31T01:37:00,prt,22.63
2022-12-31T01:38:00,prt,25.78
2022-12-31T01:39:00,prt,25.55
2022-12-31T01:40:00,prt,25.50
2022-12-31T01:41:00,prt,26.92
2022-12-31T01:42:00,prt,26.13
2022-12-31T01:43:00,prt,21.41
2022-12-31T01:44:00,prt,24.89
2022-12-31T01:45:00,prt,24.56
2022-12-31T01:46:00,prt,24.54
2022-12-31T01:47:00,prt,20.27
2022-12-31T01:48:00,prt,20.47
2022-12-31T01:49:00,prt,20.91
2022-12-31T01:50:00,prt,19.95
2022-12-31T01:51:00,prt,19.65
2022-12-31T01:52:00,prt,19.63
2022-12-31T01:53:00,prt,19.24
2022-12-31T01:54:00,prt,19.55
2022-12-31T01:55:00,prt,20.30
2022-12-31T01:56:00,prt,21.30
2022-12-31T01:57:00,prt,21.57
2022-12-31T01:58:00,prt,20.11
2022-12-31T01:59:00,prt,22.32
2022-12-31T02:00:00,prt,23.23
2022-12-31T02:01:00,prt,22.53
2022-12-31T02:02:00,prt,22.15
2022-12-31T02:03:00,prt,22.46
2022-12-31T02:04:00,prt,24.67
2022-12-31T02:05:00,prt,24.18
2022-12-31T02:06:00,prt,25.70
2022-12-31T02:07:00,prt,28.97
2022-12-31T02:08:00,prt,28.20
2022-12-31T02:09:00,prt,23.49
2022-12-31T02:10:00,prt,21.94
2022-12-31T02:11:00,prt,22.08
2022-12-31T02:12:00,prt,21.45
2022-12-31T02:13:00,prt,21.43
2022-12-31T02:14:00,prt,21.38
2022-12-31T02:15:00,prt,20.87
2022-12-31T02:16:00,prt,20.62
2022-12-31T02:17:00,prt,21.69
2022-12-31T02:18:00,prt,20.83
2022-12-31T02:19:00,prt,20.53
2022-12-31T02:20:00,prt,19.20
2022-12-31T02:21:00,prt,19.87
2022-12-31T02:22:00,prt,19.88
2022-12-31T02:23:00,prt,22.13
2022-12-31T02:24:00,prt,22.84
2022-12-31T02:25:00,prt,22.19
2022-12-31T02:26:00,prt,22.17
2022-12-31T02:27:00,prt,23.17
2022-12-31T02:28:00,prt,22.17
2022-12-31T02:29:00,prt,29.14
2022-12-31T02:30:00,prt,29.79
2022-12-31T02:31:00,prt,29.04
2022-12-31T02:32:00,prt,24.11
2022-12-31T02:33:00,prt,24.14
2022-12-31T02:34:00,prt,22.96
2022-12-31T02:35:00,prt,20.32
2022-12-31T02:36:00,prt,20.43
2022-12-31T02:37:00,prt,20.82
2022-12-31T02:38:00,prt,20.17
2022-12-31T02:39:00,prt,19.93
2022-12-31T02:40:00,prt,20.33
2022-12-31T02:41:00,prt,20.17
2022-12-31T02:42:00,prt,20.69
2022-12-31T02:43:00,prt,19.49
2022-12-31T02:44:00,prt,18.93
2022-12-31T02:45:00,prt,19.51
2022-12-31T02:46:00,prt,20.65
2022-12-31T02:47:00,prt,21.11
2022-12-31T02:48:00,prt,20.79
2022-12-31T02:49:00,prt,24.19
2022-12-31T02:50:00,prt,22.32
2022-12-31T02:51:00,prt,21.46
2022-12-31T02:52:00,prt,25.14
2022-12-31T02:53:00,prt,25.15
2022-12-31T02:54:00,prt,23.15
2022-12-31T02:55:00,prt,22.43
2022-12-31T02:56:00,prt,22.56
2022-12-31T02:57:00,prt,22.82
2022-12-31T02:58:00,prt,21.63
2022-12-31T02:59:00,prt,21.57
2022-12-31T03:00:00,prt,18.96
2022-12-31T03:01:00,prt,18.99
2022-12-31T03:02:00,prt,19.51
2022-12-31T03:03:00,prt,19.52
2022-12-31T03:04:00,prt,20.56
2022-12-31T03:05:00,prt,19.61
2022-12-31T03:06:00,prt,18.56
2022-12-31T03:07:00,prt,20.02
2022-12-31T03:08:00,prt,20.39
2022-12-31T03:09:00,prt,21.72
2022-12-31T03:10:00,prt,20.95
2022-12-31T03:11:00,prt,19.89
2022-12-31T03:12:00,prt,20.45
2022-12-31T03:13:00,prt,22.35
2022-12-31T03:14:00,prt,21.84
2022-12-31T03:15:00,prt,26.18
2022-12-31T03:16:00,prt,25.35
2022-12-31T03:17:00,prt,22.26
2022-12-31T03:18:00,prt,21.09
2022-12-31T03:19:00,prt,23.02
2022-12-31T03:20:00,prt,23.29
2022-12-31T03:21:00,prt,25.81
2022-12-31T03:22:00,prt,23.72
2022-12-31T03:23:00,prt,23.64
2022-12-31T03:24:00,prt,24.38
2022-12-31T03:25:00,prt,24.94
2022-12-31T03:26:00,prt,22.69
2022-12-31T03:27:00,prt,21.84
2022-12-31T03:28:00,prt,19.77
2022-12-31T03:29:00,prt,19.71
2022-12-31T03:30:00,prt,19.78
2022-12-31T03:31:00,prt,19.77
2022-12-31T03:32:00,prt,19.76
2022-12-31T03:33:00,prt,20.27
2022-12-31T03:34:00,prt,19.93
2022-12-31T03:35:00,prt,19.73
2022-12-31T03:36:00,prt,21.12
2022-12-31T03:37:00,prt,24.17
2022-12-31T03:38:00,prt,24.13
2022-12-31T03:39:00,prt,22.11
2022-12-31T03:40:00,prt,19.64
2022-12-31T03:41:00,prt,21.30
2022-12-31T03:42:00,prt,21.41
2022-12-31T03:43:00,prt,21.43
2022-12-31T03:44:00,prt,21.12
2022-12-31T03:45:00,prt,21.39
2022-12-31T03:46:00,prt,22.39
2022-12-31T03:47:00,prt,26.00
2022-12-31T03:48:00,prt,26.15
2022-12-31T03:49:00,prt,24.69
2022-12-31T03:50:00,prt,23.88
2022-12-31T03:51:00,prt,23.84
2022-12-31T03:52:00,prt,20.43
2022-12-31T03:53:00,prt,21.00
2022-12-31T03:54:00,prt,20.89
2022-12-31T03:55:00,prt,21.54
2022-12-31T03:56:00,prt,20.44
2022-12-31T03:57:00,prt,20.81
2022-12-31T03:58:00,prt,20.11
2022-12-31T03:59:00,prt,20.66
2022-12-31T04:00:00,prt,26.02
2022-12-31T04:01:00,prt,26.16
2022-12-31T04:02:00,prt,28.17
2022-12-31T04:03:00,prt,24.15
2022-12-31T04:04:00,prt,24.89
2022-12-31T04:05:00,prt,24.65
2022-12-31T04:06:00,prt,23.94
2022-12-31T04:07:00,prt,24.29
2022-12-31T04:08:00,prt,24.21
2022-12-31T04:09:00,prt,24.65
2022-12-31T04:10:00,prt,24.21
2022-12-31T04:11:00,prt,23.01
2022-12-31T04:12:00,prt,23.95
2022-12-31T04:13:00,prt,23.38
2022-12-31T04:14:00,prt,23.59
2022-12-31T04:15:00,prt,25.19
2022-12-31T04:16:00,prt,25.23
2022-12-31T04:17:00,prt,21.83
2022-12-31T04:18:00,prt,21.38
2022-12-31T04:19:00,prt,20.19
2022-12-31T04:20:00,prt,20.48
2022-12-31T04:21:00,prt,21.01
2022-12-31T04:22:00,prt,20.99
2022-12-31T04:23:00,prt,24.45
2022-12-31T04:24:00,prt,22.56
2022-12-31T04:25:00,prt,19.70
2022-12-31T04:26:00,prt,18.81
2022-12-31T04:27:00,prt,20.23
2022-12-31T04:28:00,prt,19.91
2022-12-31T04:29:00,prt,20.28
2022-12-31T04:30:00,prt,20.45
2022-12-31T04:31:00,prt,21.23
2022-12-31T04:32:00,prt,20.48
2022-12-31T04:33:00,prt,21.33
2022-12-31T04:34:00,prt,22.28
2022-12-31T04:35:00,prt,23.18
2022-12-31T04:36:00,prt,21.87
2022-12-31T04:37:00,prt,21.23
2022-12-31T04:38:00,prt,24.52
2022-12-31T04:39:00,prt,24.30
2022-12-31T04:40:00,prt,23.70
2022-12-31T04:41:00,prt,24.75
2022-12-31T04:42:00,prt,25.04
2022-12-31T04:43:00,prt,21.34
2022-12-31T04:44:00,prt,20.56
2022-12-31T04:45:00,prt,23.34
2022-12-31T04:46:00,prt,24.14
2022-12-31T04:47:00,prt,24.00
2022-12-31T04:48:00,prt,20.63
2022-12-31T04:49:00,prt,21.65
2022-12-31T04:50:00,prt,22.46
2022-12-31T04:51:00,prt,23.03
2022-12-31T04:52:00,prt,25.03
2022-12-31T04:53:00,prt,24.33
2022-12-31T04:54:00,prt,24.12
2022-12-31T04:55:00,prt,25.29
2022-12-31T04:56:00,prt,24.15
2022-12-31T04:57:00,prt,24.46
2022-12-31T04:58:00,prt,22.03
2022-12-31T04:59:00,prt,21.83
2022-12-31T05:00:00,prt,21.90
2022-12-31T05:01:00,prt,21.92
2022-12-31T05:02:00,prt,19.87
2022-12-31T05:03:00,prt,23.62
2022-12-31T05:04:00,prt,23.41
2022-12-31T05:05:00,prt,23.82
2022-12-31T05:06:00,prt,22.98
2022-12-31T05:07:00,prt,23.82
2022-12-31T05:08:00,prt,25.04
2022-12-31T05:09:00,prt,25.11
2022-12-31T05:10:00,prt,23.25
2022-12-31T05:11:00,prt,20.30
2022-12-31T05:12:00,prt,20.90
2022-12-31T05:13:00,prt,19.98
2022-12-31T05:14:00,prt,20.58
2022-12-31T05:15:00,prt,20.65
2022-12-31T05:16:00,prt,19.97
2022-12-31T05:17:00,prt,19.40
2022-12-31T05:18:00,prt,19.28
2022-12-31T05:19:00,prt,20.02
2022-12-31T05:20:00,prt,19.64
2022-12-31T05:21:00,prt,19.64
2022-12-31T05:22:00,prt,19.46
2022-12-31T05:23:00,prt,20.63
2022-12-31T05:24:00,prt,21.29
2022-12-31T05:25:00,prt,22.43
2022-12-31T05:26:00,prt,21.96
2022-12-31T05:27:00,prt,20.60
2022-12-31T05:28:00,prt,20.64
2022-12-31T05:29:00,prt,22.93
2022-12-31T05:30:00,prt,23.43
2022-12-31T05:31:00,prt,26.86
2022-12-31T05:32:00,prt,26.94
2022-12-31T05:33:00,prt,26.29
2022-12-31T05:34:00,prt,20.07
2022-12-31T05:35:00,prt,20.87
2022-12-31T05:36:00,prt,20.22
2022-12-31T05:37:00,prt,20.14
2022-12-31T05:38:00,prt,20.29
2022-12-31T05:39:00,prt,20.37
2022-12-31T05:40:00,prt,20.82
2022-12-31T05:41:00,prt,21.40
2022-12-31T05:42:00,prt,23.00
2022-12-31T05:43:00,prt,22.50
2022-12-31T05:44:00,prt,22.51
2022-12-31T05:45:00,prt,23.19
2022-12-31T05:46:00,prt,23.05
2022-12-31T05:47:00,prt,23.09
2022-12-31T05:48:00,prt,22.87
2022-12-31T05:49:00,prt,20.50
2022-12-31T05:50:00,prt,20.64
2022-12-31T05:51:00,prt,20.50
2022-12-31T05:52:00,prt,20.36
2022-12-31T05:53:00,prt,25.74
2022-12-31T05:54:00,prt,25.38
2022-12-31T05:55:00,prt,27.58
2022-12-31T05:56:00,prt,23.17
2022-12-31T05:57:00,prt,23.60
2022-12-31T05:58:00,prt,24.24
2022-12-31T05:59:00,prt,24.23
2022-12-31T06:00:00,prt,21.12
2022-12-31T06:01:00,prt,22.09
2022-12-31T06:02:00,prt,21.72
2022-12-31T06:03:00,prt,22.17
2022-12-31T06:04:00,prt,21.39
2022-12-31T06:05:00,prt,20.14
2022-12-31T06:06:00,prt,20.01
2022-12-31T06:07:00,prt,19.63
2022-12-31T06:08:00,prt,19.41
2022-12-31T06:09:00,prt,19.59
2022-12-31T06:10:00,prt,19.63
2022-12-31T06:11:00,prt,20.35
2022-12-31T06:12:00,prt,20.19
2022-12-31T06:13:00,prt,21.23
2022-12-31T06:14:00,prt,20.00
2022-12-31T06:15:00,prt,20.55
2022-12-31T06:16:00,prt,24.09
2022-12-31T06:17:00,prt,25.73
2022-12-31T06:18:00,prt,25.01
2022-12-31T06:19:00,prt,21.08
2022-12-31T06:20:00,prt,23.49
2022-12-31T06:21:00,prt,26.33
2022-12-31T06:22:00,prt,27.43
2022-12-31T06:23:00,prt,27.65
2022-12-31T06:24:00,prt,26.93
2022-12-31T06:25:00,prt,26.66
2022-12-31T06:26:00,prt,21.21
2022-12-31T06:27:00,prt,20.75
2022-12-31T06:28:00,prt,22.14
2022-12-31T06:29:00,prt,21.87
2022-12-31T06:30:00,prt,19.32
2022-12-31T06:31:00,prt,18.96
2022-12-31T06:32:00,prt,20.57
2022-12-31T06:33:00,prt,21.99
2022-12-31T06:34:00,prt,21.71
2022-12-31T06:35:00,prt,21.83
2022-12-31T06:36:00,prt,21.39
2022-12-31T06:37:00,prt,20.40
2022-12-31T06:38:00,prt,20.72
2022-12-31T06:39:00,prt,24.14
2022-12-31T06:40:00,prt,23.48
2022-12-31T06:41:00,prt,22.94
2022-12-31T06:42:00,prt,21.59
2022-12-31T06:43:00,prt,21.26
2022-12-31T06:44:00,prt,20.61
2022-12-31T06:45:00,prt,20.25
2022-12-31T06:46:00,prt,19.93
2022-12-31T06:47:00,prt,22.99
2022-12-31T06:48:00,prt,20.97
2022-12-31T06:49:00,prt,22.70
2022-12-31T06:50:00,prt,22.68
2022-12-31T06:51:00,prt,22.01
2022-12-31T06:52:00,prt,20.44
2022-12-31T06:53:00,prt,19.42
2022-12-31T06:54:00,prt,19.53
2022-12-31T06:55:00,prt,20.30
2022-12-31T06:56:00,prt,20.70
2022-12-31T06:57:00,prt,21.40
2022-12-31T06:58:00,prt,21.74
2022-12-31T06:59:00,prt,20.06
2022-12-31T07:00:00,prt,21.51
2022-12-31T07:01:00,prt,24.07
2022-12-31T07:02:00,prt,24.24
2022-12-31T07:03:00,prt,24.08
2022-12-31T07:04:00,prt,23.97
2022-12-31T07:05:00,prt,21.60
2022-12-31T07:06:00,prt,21.13
2022-12-31T07:07:00,prt,21.13
2022-12-31T07:08:00,prt,21.04
2022-12-31T07:09:00,prt,21.72
2022-12-31T07:10:00,prt,24.22
2022-12-31T07:11:00,prt,24.88
2022-12-31T07:12:00,prt,28.04
2022-12-31T07:13:00,prt,27.41
2022-12-31T07:14:00,prt,26.81
2022-12-31T07:15:00,prt,27.19
2022-12-31T07:16:00,prt,27.23
2022-12-31T07:17:00,prt,25.12
2022-12-31T07:18:00,prt,25.85
2022-12-31T07:19:00,prt,22.60
2022-12-31T07:20:00,prt,22.16
2022-12-31T07:21:00,prt,22.04
2022-12-31T07:22:00,prt,21.80
2022-12-31T07:23:00,prt,21.17
2022-12-31T07:24:00,prt,24.40
2022-12-31T07:25:00,prt,25.42
2022-12-31T07:26:00,prt,24.98
2022-12-31T07:27:00,prt,20.77
2022-12-31T07:28:00,prt,23.76
2022-12-31T07:29:00,prt,20.98
2022-12-31T07:30:00,prt,20.69
2022-12-31T07:31:00,prt,20.67
2022-12-31T07:32:00,prt,19.35
2022-12-31T07:33:00,prt,18.73
2022-12-31T07:34:00,prt,18.04
2022-12-31T07:35:00,prt,17.64
2022-12-31T07:36:00,prt,18.01
2022-12-31T07:37:00,prt,17.96
2022-12-31T07:38:00,prt,21.10
2022-12-31T07:39:00,prt,21.40
2022-12-31T07:40:00,prt,23.52
2022-12-31T07:41:00,prt,24.69
2022-12-31T07:42:00,prt,24.46
2022-12-31T07:43:00,prt,20.61
2022-12-31T07:44:00,prt,19.42
2022-12-31T07:45:00,prt,18.69
2022-12-31T07:46:00,prt,18.65
2022-12-31T07:47:00,prt,22.22
2022-12-31T07:48:00,prt,21.83
2022-12-31T07:49:00,prt,21.48
2022-12-31T07:50:00,prt,17.83
2022-12-31T07:51:00,prt,19.79
2022-12-31T07:52:00,prt,19.41
2022-12-31T07:53:00,prt,18.90
2022-12-31T07:54:00,prt,19.54
2022-12-31T07:55:00,prt,18.77
2022-12-31T07:56:00,prt,17.89
2022-12-31T07:57:00,prt,17.73
2022-12-31T07:58:00,prt,17.57
2022-12-31T07:59:00,prt,19.47
2022-12-31T08:00:00,prt,21.75
2022-12-31T08:01:00,prt,22.46
2022-12-31T08:02:00,prt,23.02
2022-12-31T08:03:00,prt,23.66
2022-12-31T08:04:00,prt,26.39
2022-12-31T08:05:00,prt,26.90
2022-12-31T08:06:00,prt,26.28
2022-12-31T08:07:00,prt,25.10
2022-12-31T08:08:00,prt,23.36
2022-12-31T08:09:00,prt,19.54
2022-12-31T08:10:00,prt,23.02
2022-12-31T08:11:00,prt,23.63
2022-12-31T08:12:00,prt,21.33
2022-12-31T08:13:00,prt,20.68
2022-12-31T08:14:00,prt,20.45
2022-12-31T08:15:00,prt,21.88
2022-12-31T08:16:00,prt,22.20
2022-12-31T08:17:00,prt,23.27
2022-12-31T08:18:00,prt,20.55
2022-12-31T08:19:00,prt,19.90
2022-12-31T08:20:00,prt,19.57
2022-12-31T08:21:00,prt,20.27
2022-12-31T08:22:00,prt,20.44
2022-12-31T08:23:00,prt,20.37
2022-12-31T08:24:00,prt,22.67
2022-12-31T08:25:00,prt,20.68
2022-12-31T08:26:00,prt,21.30
2022-12-31T08:27:00,prt,21.23
2022-12-31T08:28:00,prt,19.84
2022-12-31T08:29:00,prt,20.40
2022-12-31T08:30:00,prt,23.02
2022-12-31T08:31:00,prt,22.31
2022-12-31T08:32:00,prt,21.58
2022-12-31T08:33:00,prt,26.34
2022-12-31T08:34:00,prt,26.41
2022-12-31T08:35:00,prt,21.60
2022-12-31T08:36:00,prt,20.80
2022-12-31T08:37:00,prt,21.23
2022-12-31T08:38:00,prt,19.98
2022-12-31T08:39:00,prt,19.05
2022-12-31T08:40:00,prt,19.22
2022-12-31T08:41:00,prt,19.30
2022-12-31T08:42:00,prt,18.54
2022-12-31T08:43:00,prt,19.61
2022-12-31T08:44:00,prt,19.10
2022-12-31T08:45:00,prt,18.73
2022-12-31T08:46:00,prt,20.06
2022-12-31T08:47:00,prt,23.04
2022-12-31T08:48:00,prt,24.83
2022-12-31T08:49:00,prt,24.06
2022-12-31T08:50:00,prt,26.73
2022-12-31T08:51:00,prt,25.72
2022-12-31T08:52:00,prt,24.84
2022-12-31T08:53:00,prt,23.79
2022-12-31T08:54:00,prt,23.67
2022-12-31T08:55:00,prt,24.95
2022-12-31T08:56:00,prt,29.26
2022-12-31T08:57:00,prt,28.72
2022-12-31T08:58:00,prt,26.50
2022-12-31T08:59:00,prt,23.32
2022-12-31T09:00:00,prt,21.32
2022-12-31T09:01:00,prt,22.80
2022-12-31T09:02:00,prt,21.35
2022-12-31T09:03:00,prt,21.36
2022-12-31T09:04:00,prt,20.43
2022-12-31T09:05:00,prt,21.00
2022-12-31T09:06:00,prt,20.62
2022-12-31T09:07:00,prt,20.14
2022-12-31T09:08:00,prt,20.10
2022-12-31T09:09:00,prt,20.81
2022-12-31T09:10:00,prt,22.09
2022-12-31T09:11:00,prt,22.34
2022-12-31T09:12:00,prt,21.94
2022-12-31T09:13:00,prt,20.75
2022-12-31T09:14:00,prt,20.80
2022-12-31T09:15:00,prt,21.53
2022-12-31T09:16:00,prt,21.90
2022-12-31T09:17:00,prt,21.81
2022-12-31T09:18:00,prt,26.01
2022-12-31T09:19:00,prt,26.29
2022-12-31T09:20:00,prt,26.49
2022-12-31T09:21:00,prt,23.68
2022-12-31T09:22:00,prt,24.06
2022-12-31T09:23:00,prt,23.50
2022-12-31T09:24:00,prt,23.21
2022-12-31T09:25:00,prt,22.10
2022-12-31T09:26:00,prt,22.94
2022-12-31T09:27:00,prt,22.35
2022-12-31T09:28:00,prt,21.95
2022-12-31T09:29:00,prt,22.28
2022-12-31T09:30:00,prt,25.66
2022-12-31T09:31:00,prt,23.95
2022-12-31T09:32:00,prt,24.52
2022-12-31T09:33:00,prt,24.54
2022-12-31T09:34:00,prt,24.11
2022-12-31T09:35:00,prt,23.88
2022-12-31T09:36:00,prt,22.73
2022-12-31T09:37:00,prt,19.94
2022-12-31T09:38:00,prt,18.95
2022-12-31T09:39:00,prt,19.00
2022-12-31T09:40:00,prt,19.51
2022-12-31T09:41:00,prt,24.43
2022-12-31T09:42:00,prt,25.05
2022-12-31T09:43:00,prt,25.69
2022-12-31T09:44:00,prt,21.83
2022-12-31T09:45:00,prt,21.97
2022-12-31T09:46:00,prt,22.80
2022-12-31T09:47:00,prt,22.86
2022-12-31T09:48:00,prt,23.04
2022-12-31T09:49:00,prt,22.58
2022-12-31T09:50:00,prt,19.96
2022-12-31T09:51:00,prt,22.29
2022-12-31T09:52:00,prt,22.31
2022-12-31T09:53:00,prt,23.22
2022-12-31T09:54:00,prt,22.52
2022-12-31T09:55:00,prt,23.60
2022-12-31T09:56:00,prt,24.14
2022-12-31T09:57:00,prt,21.04
2022-12-31T09:58:00,prt,21.53
2022-12-31T09:59:00,prt,19.69
2022-12-31T10:00:00,prt,20.01
2022-12-31T10:01:00,prt,18.31
2022-12-31T10:02:00,prt,19.26
2022-12-31T10:03:00,prt,19.48
2022-12-31T10:04:00,prt,22.48
2022-12-31T10:05:00,prt,21.79
2022-12-31T10:06:00,prt,20.15
2022-12-31T10:07:00,prt,18.79
2022-12-31T10:08:00,prt,18.79
2022-12-31T10:09:00,prt,19.66
2022-12-31T10:10:00,prt,19.62
2022-12-31T10:11:00,prt,19.10
2022-12-31T10:12:00,prt,18.42
2022-12-31T10:13:00,prt,21.56
2022-12-31T10:14:00,prt,22.04
2022-12-31T10:15:00,prt,22.19
2022-12-31T10:16:00,prt,21.75
2022-12-31T10:17:00,prt,21.44
2022-12-31T10:18:00,prt,22.29
2022-12-31T10:19:00,prt,20.58
2022-12-31T10:20:00,prt,20.97
2022-12-31T10:21:00,prt,19.55
2022-12-31T10:22:00,prt,19.23
2022-12-31T10:23:00,prt,19.11
2022-12-31T10:24:00,prt,18.29
2022-12-31T10:25:00,prt,18.72
2022-12-31T10:26:00,prt,21.78
2022-12-31T10:27:00,prt,21.15
2022-12-31T10:28:00,prt,21.62
2022-12-31T10:29:00,prt,19.46
2022-12-31T10:30:00,prt,21.03
2022-12-31T10:31:00,prt,22.98
2022-12-31T10:32:00,prt,21.84
2022-12-31T10:33:00,prt,21.27
2022-12-31T10:34:00,prt,21.16
2022-12-31T10:35:00,prt,21.62
2022-12-31T10:36:00,prt,21.95
2022-12-31T10:37:00,prt,26.60
2022-12-31T10:38:00,prt,26.62
2022-12-31T10:39:00,prt,26.11
2022-12-31T10:40:00,prt,24.12
2022-12-31T10:41:00,prt,23.76
2022-12-31T10:42:00,prt,20.45
2022-12-31T10:43:00,prt,19.66
2022-12-31T10:44:00,prt,19.62
2022-12-31T10:45:00,prt,19.28
2022-12-31T10:46:00,prt,17.30
2022-12-31T10:47:00,prt,17.37
2022-12-31T10:48:00,prt,16.59
2022-12-31T10:49:00,prt,21.00
2022-12-31T10:50:00,prt,21.29
2022-12-31T10:51:00,prt,20.54
2022-12-31T10:52:00,prt,19.97
2022-12-31T10:53:00,prt,19.52
2022-12-31T10:54:00,prt,19.54
2022-12-31T10:55:00,prt,18.98
2022-12-31T10:56:00,prt,18.21
2022-12-31T10:57:00,prt,18.40
2022-12-31T10:58:00,prt,16.92
2022-12-31T10:59:00,prt,17.94
2022-12-31T11:00:00,prt,18.66
2022-12-31T11:01:00,prt,17.82
2022-12-31T11:02:00,prt,20.94
2022-12-31T11:03:00,prt,21.24
2022-12-31T11:04:00,prt,22.13
2022-12-31T11:05:00,prt,22.06
2022-12-31T11:06:00,prt,22.18
2022-12-31T11:07:00,prt,18.82
2022-12-31T11:08:00,prt,18.42
2022-12-31T11:09:00,prt,17.73
2022-12-31T11:10:00,prt,20.04
2022-12-31T11:11:00,prt,19.39
2022-12-31T11:12:00,prt,22.28
2022-12-31T11:13:00,prt,21.73
2022-12-31T11:14:00,prt,19.65
2022-12-31T11:15:00,prt,19.44
2022-12-31T11:16:00,prt,19.98
2022-12-31T11:17:00,prt,20.76
2022-12-31T11:18:00,prt,20.99
2022-12-31T11:19:00,prt,21.04
2022-12-31T11:20:00,prt,20.89
2022-12-31T11:21:00,prt,19.28
2022-12-31T11:22:00,prt,20.97
2022-12-31T11:23:00,prt,20.34
2022-12-31T11:24:00,prt,20.43
2022-12-31T11:25:00,prt,20.38
2022-12-31T11:26:00,prt,21.88
2022-12-31T11:27:00,prt,26.03
2022-12-31T11:28:00,prt,28.91
2022-12-31T11:29:00,prt,27.78
2022-12-31T11:30:00,prt,26.34
2022-12-31T11:31:00,prt,23.38
2022-12-31T11:32:00,prt,20.15
2022-12-31T11:33:00,prt,20.03
2022-12-31T11:34:00,prt,23.55
2022-12-31T11:35:00,prt,24.24
2022-12-31T11:36:00,prt,23.41
2022-12-31T11:37:00,prt,21.17
2022-12-31T11:38:00,prt,22.74
2022-12-31T11:39:00,prt,22.54
2022-12-31T11:40:00,prt,23.29
2022-12-31T11:41:00,prt,22.31
2022-12-31T11:42:00,prt,21.88
2022-12-31T11:43:00,prt,21.73
2022-12-31T11:44:00,prt,21.35
2022-12-31T11:45:00,prt,21.40
2022-12-31T11:46:00,prt,19.89
2022-12-31T11:47:00,prt,19.08
2022-12-31T11:48:00,prt,20.38
2022-12-31T11:49:00,prt,20.61
2022-12-31T11:50:00,prt,21.54
2022-12-31T11:51:00,prt,23.88
2022-12-31T11:52:00,prt,22.05
2022-12-31T11:53:00,prt,21.93
2022-12-31T11:54:00,prt,21.85
2022-12-31T11:55:00,prt,22.09
2022-12-31T11:56:00,prt,22.01
2022-12-31T11:57:00,prt,22.07
2022-12-31T11:58:00,prt,22.39
2022-12-31T11:59:00,prt,20.73
2022-12-31T12:00:00,prt,22.60
2022-12-31T12:01:00,prt,23.84
2022-12-31T12:02:00,prt,24.16
2022-12-31T12:03:00,prt,23.06
2022-12-31T12:04:00,prt,20.83
2022-12-31T12:05:00,prt,19.94
2022-12-31T12:06:00,prt,19.57
2022-12-31T12:07:00,prt,19.46
2022-12-31T12:08:00,prt,20.03
2022-12-31T12:09:00,prt,19.29
2022-12-31T12:10:00,prt,19.71
2022-12-31T12:11:00,prt,20.09
2022-12-31T12:12:00,prt,20.88
2022-12-31T12:13:00,prt,23.17
2022-12-31T12:14:00,prt,23.19
2022-12-31T12:15:00,prt,22.13
2022-12-31T12:16:00,prt,22.07
2022-12-31T12:17:00,prt,27.07
2022-12-31T12:18:00,prt,26.32
2022-12-31T12:19:00,prt,25.43
2022-12-31T12:20:00,prt,29.05
2022-12-31T12:21:00,prt,27.73
2022-12-31T12:22:00,prt,22.02
2022-12-31T12:23:00,prt,20.63
2022-12-31T12:24:00,prt,20.78
2022-12-31T12:25:00,prt,20.75
2022-12-31T12:26:00,prt,19.51
2022-12-31T12:27:00,prt,20.12
2022-12-31T12:28:00,prt,20.17
2022-12-31T12:29:00,prt,18.22
2022-12-31T12:30:00,prt,18.45
2022-12-31T12:31:00,prt,18.60
2022-12-31T12:32:00,prt,18.87
2022-12-31T12:33:00,prt,19.99
2022-12-31T12:34:00,prt,20.69
2022-12-31T12:35:00,prt,20.96
2022-12-31T12:36:00,prt,20.86
2022-12-31T12:37:00,prt,20.41
2022-12-31T12:38:00,prt,19.62
2022-12-31T12:39:00,prt,19.96
2022-12-31T12:40:00,prt,18.98
2022-12-31T12:41:00,prt,18.41
2022-12-31T12:42:00,prt,24.89
2022-12-31T12:43:00,prt,25.48
2022-12-31T12:44:00,prt,25.65
2022-12-31T12:45:00,prt,23.16
2022-12-31T12:46:00,prt,22.44
2022-12-31T12:47:00,prt,22.81
2022-12-31T12:48:00,prt,19.94
2022-12-31T12:49:00,prt,19.46
2022-12-31T12:50:00,prt,21.39
2022-12-31T12:51:00,prt,20.74
2022-12-31T12:52:00,prt,20.56
2022-12-31T12:53:00,prt,20.43
2022-12-31T12:54:00,prt,19.98
2022-12-31T12:55:00,prt,20.12
2022-12-31T12:56:00,prt,19.85
2022-12-31T12:57:00,prt,21.19
2022-12-31T12:58:00,prt,20.98
2022-12-31T12:59:00,prt,20.47
2022-12-31T13:00:00,prt,19.24
2022-12-31T13:01:00,prt,18.40
2022-12-31T13:02:00,prt,18.40
2022-12-31T13:03:00,prt,17.80
2022-12-31T13:04:00,prt,19.55
2022-12-31T13:05:00,prt,24.01
2022-12-31T13:06:00,prt,24.09
2022-12-31T13:07:00,prt,25.29
2022-12-31T13:08:00,prt,24.99
2022-12-31T13:09:00,prt,24.92
2022-12-31T13:10:00,prt,25.03
2022-12-31T13:11:00,prt,24.88
2022-12-31T13:12:00,prt,25.78
2022-12-31T13:13:00,prt,20.38
2022-12-31T13:14:00,prt,20.00
2022-12-31T13:15:00,prt,20.21
2022-12-31T13:16:00,prt,20.86
2022-12-31T13:17:00,prt,21.41
2022-12-31T13:18:00,prt,20.74